TimeEST,TemperatureF,Dew PointF,Humidity,Sea Level PressureIn,VisibilityMPH,Wind Direction,Wind SpeedMPH,Gust SpeedMPH,PrecipitationIn,Events,Conditions,WindDirDegrees,DateUTC
12:53 AM,39.0,36.0,89,30.25,5.0,Calm,Calm,-,0.04,Rain,Light Rain,0,2013-01-15 05:53:00
1:53 AM,37.9,35.1,89,30.26,5.0,Calm,Calm,-,0.06,Rain,Light Rain,0,2013-01-15 06:53:00
2:53 AM,37.9,35.1,89,30.25,10.0,North,3.5,-,0.03,Rain,Light Rain,360,2013-01-15 07:53:00
3:53 AM,37.0,35.1,93,30.25,10.0,Calm,Calm,-,0.04,,Overcast,0,2013-01-15 08:53:00
4:00 AM,37.4,35.6,93,30.23,10.0,Calm,Calm,-,N/A,,Overcast,0,2013-01-15 09:00:00
4:53 AM,37.0,36.0,96,30.22,9.0,Calm,Calm,-,0.00,Rain,Light Rain,0,2013-01-15 09:53:00
5:53 AM,37.9,35.1,89,30.22,10.0,Calm,Calm,-,0.00,,Overcast,0,2013-01-15 10:53:00
6:53 AM,37.0,35.1,93,30.24,10.0,Calm,Calm,-,0.00,,Overcast,0,2013-01-15 11:53:00
7:53 AM,37.0,35.1,93,30.27,10.0,Calm,Calm,-,N/A,,Overcast,0,2013-01-15 12:53:00
8:53 AM,37.9,34.0,86,30.29,10.0,NNW,3.5,-,N/A,,Mostly Cloudy,330,2013-01-15 13:53:00
9:53 AM,37.9,32.0,79,30.29,-9999.0,North,4.6,-,N/A,,Overcast,350,2013-01-15 14:53:00
10:53 AM,39.0,32.0,76,30.28,10.0,Variable,3.5,-,N/A,,Overcast,0,2013-01-15 15:53:00
11:53 AM,39.9,30.9,70,30.26,10.0,Variable,3.5,-,N/A,,Unknown,0,2013-01-15 16:53:00
12:53 PM,41.0,30.0,65,30.26,10.0,North,3.5,-,N/A,,Unknown,10,2013-01-15 17:53:00
1:53 PM,42.1,30.9,65,30.25,10.0,North,3.5,-,N/A,,Scattered Clouds,350,2013-01-15 18:53:00
2:53 PM,42.1,30.9,65,30.25,10.0,Variable,3.5,-,N/A,,Mostly Cloudy,0,2013-01-15 19:53:00
3:26 PM,41.0,30.2,65,30.24,10.0,NNE,3.5,-,N/A,,Partly Cloudy,30,2013-01-15 20:26:00
3:53 PM,41.0,30.9,67,30.25,10.0,Calm,Calm,-,N/A,,Scattered Clouds,0,2013-01-15 20:53:00
4:05 PM,41.0,30.2,65,30.23,10.0,Calm,Calm,-,N/A,,Mostly Cloudy,0,2013-01-15 21:05:00
4:53 PM,39.0,30.9,73,30.25,10.0,Calm,Calm,-,N/A,,Overcast,0,2013-01-15 21:53:00
5:53 PM,39.0,32.0,76,30.25,10.0,Calm,Calm,-,N/A,,Overcast,0,2013-01-15 22:53:00
6:53 PM,37.9,30.9,76,30.25,10.0,Calm,Calm,-,N/A,,Overcast,0,2013-01-15 23:53:00
7:53 PM,37.9,30.9,76,30.25,10.0,North,4.6,-,N/A,,Overcast,10,2013-01-16 00:53:00
8:30 PM,37.4,28.4,70,30.25,10.0,Calm,Calm,-,N/A,,Overcast,0,2013-01-16 01:30:00
8:53 PM,37.9,28.0,68,30.25,10.0,Calm,Calm,-,N/A,,Overcast,0,2013-01-16 01:53:00
9:53 PM,37.9,28.0,68,30.24,10.0,Calm,Calm,-,N/A,,Overcast,0,2013-01-16 02:53:00
10:53 PM,37.9,28.9,70,30.24,10.0,Calm,Calm,-,N/A,,Overcast,0,2013-01-16 03:53:00
11:53 PM,37.0,28.0,70,30.22,10.0,North,3.5,-,N/A,,Overcast,10,2013-01-16 04:53:00